[[{"header":{"parameterUnit":"m.s-1","parameterCategory":1,"la1":30.2991,"la2":30.254,"lo1":-89.0895,"lo2":-89.0444,"dy":0.0017,"dx":0.0017,"nx":28,"ny":28,"refTime":"2024-04-09T21:00:00:Z","depth":0,"parameterNumber":2,"parameterNumberName":"U-component_of_WINDS"},"data":[0,0,0,0,0,0,0,0,0,0,0,0,0,0,0,0,0,0,0,0,0,0,0,0,0,0,0,0,0,0,0,0,0,0,0,0,0,0,0,0,0,0,0,0,0,0,0,0,0,0,0,0,0,0,0,0,0,0,-7.3885,-7.3888,0,-7.4172,-7.4175,-7.4178,-7.4259,-7.4258,-7.4256,-7.4255,-7.4543,-7.4552,-7.4561,0,0,0,0,0,0,0,0,0,0,0,0,0,-7.3403,-7.3412,-7.3885,-7.3888,-7.3892,-7.4171,-7.4175,-7.4179,-7.426,-7.4258,-7.4256,-7.4254,-7.454,-7.4551,-7.4562,0,0,0,0,0,0,0,0,0,0,0,0,0,-7.3643,-7.3414,-7.3884,-7.3966,-7.3976,-7.417,-7.4175,-7.418,-7.426,-7.4258,-7.4255,-7.4253,-7.4537,-7.455,-7.4564,-7.4696,0,0,-7.4606,-7.4612,0,0,0,0,0,0,0,0,-7.3629,-7.3661,-7.395,-7.3961,-7.3972,-7.4177,-7.4111,-7.4353,-7.4261,-7.4152,-7.4255,-7.4252,-7.4423,-7.4446,-7.4505,-7.4709,-7.4722,-7.4607,-7.4615,-7.4621,-7.4625,0,0,0,0,0,0,0,-7.3613,-7.3649,-7.3998,-7.3954,-7.3968,-7.3987,-7.4019,-7.4157,-7.4297,-7.4161,-7.4168,-7.4201,-7.4429,-7.4491,-7.4512,-7.4726,-7.4606,-7.4619,-7.4627,-7.4633,-7.5053,-7.5055,0,0,0,0,0,0,-7.3583,-7.3634,-7.3989,-7.4007,-7.3792,-7.3998,-7.4033,-7.4114,-7.4296,-7.4322,-7.4203,-7.4204,-7.4469,-7.4496,-7.4523,-7.4689,-7.4621,-7.4634,-7.4642,-7.505,-7.5053,-7.5057,0,0,0,0,0,0,-7.3572,-7.3614,-7.3977,-7.3823,-7.387,-7.4009,-7.4099,-7.4121,-7.4184,-7.4327,-7.4352,-7.4241,-7.4468,-7.4503,-7.4652,-7.47,-7.464,-7.4653,-7.5046,-7.5051,-7.5055,-7.5021,0,0,0,0,0,0,-7.3558,-7.3609,-7.3661,-7.3823,-7.3878,-7.4103,-7.4102,-7.4128,-7.4208,-7.4212,-7.437,-7.4394,-7.4469,-7.4631,-7.4666,-7.4717,-7.4663,-7.5043,-7.5048,-7.5054,-7.5018,-7.5023,-7.5028,0,0,0,0,0,-7.354,-7.3639,-7.3664,-7.3706,-7.3947,-7.4106,-7.4137,-7.4223,-7.4211,-7.4264,-7.4357,-7.4389,-7.469,-7.4646,-7.4686,-7.4742,-7.504,-7.5047,-7.5053,-7.5016,-7.5022,-7.5028,0,0,0,0,0,0,-7.3477,-7.3662,-7.3691,-7.3845,-7.3959,-7.4119,-7.4188,-7.4227,-7.4345,-7.4344,-7.4444,-7.4479,-7.4621,-7.4697,-7.4645,-7.4879,-7.4865,-7.488,-7.4824,-7.4831,-7.4836,-7.4813,-7.4675,0,0,0,0,0,-7.3482,-7.3597,-7.3751,-7.3873,-7.3929,-7.4049,-7.4121,-7.4178,-7.4299,-7.4347,-7.4451,-7.4566,-7.4687,-7.4764,-7.4883,-7.5031,-7.5066,-7.5089,-7.5094,-7.5097,-7.5108,-7.5191,-7.5203,-7.5078,-7.5078,-7.5078,0,0,-7.3491,-7.3606,-7.3672,-7.3863,-7.3958,-7.4073,-7.4088,-7.421,-7.4296,-7.4365,-7.4512,-7.4592,-7.4728,-7.4877,-7.4948,-7.4944,-7.5151,-7.5106,-7.5107,-7.5116,-7.5199,-7.5211,-7.5221,-7.5083,-7.5082,-7.5081,0,0,-7.3566,-7.3666,-7.3778,-7.3873,-7.4018,-7.4098,-7.4124,-7.4279,-7.4335,-7.4485,-7.454,-7.4644,-7.4849,-7.4944,-7.5018,-7.5132,-7.5166,-7.5168,-7.5192,-7.5272,-7.5282,-7.5291,-7.533,-7.5343,-7.5179,-7.5179,-7.5179,0,-7.3559,-7.3736,-7.383,-7.3949,-7.4031,-7.4102,-7.4215,-7.4303,-7.4478,-7.4532,-7.4527,-7.4787,-7.4884,-7.5055,-7.5083,-7.5142,-7.5175,-7.5149,-7.5273,-7.5284,-7.5293,-7.5331,-7.5346,-7.5178,-7.5178,-7.5178,-7.5178,0,-7.3719,-7.3841,-7.3914,-7.4083,-7.4174,-7.4289,-7.4399,-7.448,-7.4529,-7.4609,-7.476,-7.4879,-7.5023,-7.5069,-7.5118,-7.5248,-7.5241,-7.5254,-7.5241,-7.5303,-7.534,-7.5356,-7.5177,-7.5177,-7.5177,-7.5178,0,0,-7.3759,-7.3981,-7.4006,-7.4083,-7.4249,-7.4345,-7.4464,-7.4607,-7.4673,-7.4792,-7.4893,-7.5067,-7.508,-7.5165,-7.5226,-7.5296,-7.5377,-7.53,-7.5305,-7.5308,-7.5526,-7.5513,-7.5529,-7.5402,-7.5405,-7.5408,-7.5514,0,-7.3853,-7.4069,-7.4158,-7.4332,-7.4445,-7.4516,-7.4619,-7.4732,-7.481,-7.4917,-7.5004,-7.5124,-7.5133,-7.5185,-7.5259,-7.5351,-7.5421,-7.5346,-7.5495,-7.5499,-7.5455,-7.5549,-7.5536,-7.563,-7.5529,-7.5532,-7.5534,0,-7.3992,-7.4113,-7.4299,-7.4452,-7.4503,-7.4594,-7.4733,-7.4835,-7.4964,-7.5016,-7.5112,-7.5169,-7.5296,-7.5278,-7.5452,-7.5399,-7.5466,-7.5521,-7.5527,-7.5541,-7.5517,-7.5563,-7.5662,-7.5675,-7.5558,-7.5556,-7.5554,0,-7.3999,-7.421,-7.4348,-7.4413,-7.4596,-7.4658,-7.4737,-7.4864,-7.4944,-7.5065,-7.5118,-7.5252,-7.5324,-7.5426,-7.5517,-7.5496,-7.5683,-7.5673,-7.5728,-7.5725,-7.5761,-7.5757,-7.5869,-7.5809,-7.5808,-7.5808,-7.5808,0,-7.4093,-7.4203,-7.4354,-7.4439,-7.4564,-7.4666,-7.4787,-7.487,-7.4983,-7.5084,-7.5154,-7.5247,-7.5364,-7.5473,-7.5545,-7.5678,-7.5711,-7.5755,-7.5772,-7.5747,-7.5741,-7.579,-7.5784,-7.5812,-7.5811,-7.581,-7.581,0,-7.4121,-7.4227,-7.4382,-7.4543,-7.4587,-7.4672,-7.4809,-7.4893,-7.4977,-7.5104,-7.5139,-7.5269,-7.54,-7.5503,-7.5673,-7.5722,-7.5861,-7.5882,-7.5818,-7.5826,-7.5875,-7.5868,-7.602,-7.6044,-7.5969,-7.597,-7.597,0,-7.4173,-7.426,-7.4431,-7.4504,-7.4583,-7.4701,-7.4784,-7.4888,-7.4971,-7.5125,-7.5191,-7.5328,-7.5442,-7.5648,-7.5756,-7.5887,-7.591,-7.5954,-7.5929,-7.5901,-7.5908,-7.59,-7.5909,-7.5956,-7.5956,-7.5956,-7.5956,0,-7.4253,-7.4301,-7.4419,-7.4556,-7.4653,-7.4766,-7.4879,-7.4935,-7.5059,-7.515,-7.5285,-7.5374,-7.555,-7.5684,-7.5826,-7.5906,-7.5951,-7.5964,-7.5983,-7.5957,-7.5915,-7.5936,-7.5823,-7.5959,-7.5959,-7.5959,-7.5958,-7.5958,-7.4293,-7.4373,-7.4506,-7.4635,-7.4732,-7.4837,-7.4924,-7.502,-7.5135,-7.5286,-7.5341,-7.548,-7.5608,-7.5804,-7.5886,-7.5995,-7.5998,-7.6026,-7.6033,-7.6037,-7.6034,-7.59,-7.6022,-7.6022,-7.6022,-7.6022,-7.6022,0,-7.4374,-7.4464,-7.4582,-7.474,-7.4841,-7.4878,-7.5006,-7.5088,-7.521,-7.5326,-7.5438,-7.5594,-7.5725,-7.5845,-7.5982,-7.6046,-7.6071,-7.6079,-7.6073,-7.6091,-7.6025,-7.5993,-7.6057,-7.6057,-7.6057,-7.6057,-7.6057,-7.6057,-7.4428,-7.4566,-7.463,-7.4816,-7.4906,-7.5044,-7.5113,-7.521,-7.5304,-7.5475,-7.5585,-7.5663,-7.5781,-7.5927,-7.6049,-7.6081,-7.6126,-7.6128,-7.6165,-7.61,-7.6095,-7.6091,-7.6062,-7.6138,-7.6138,-7.6222,-7.6223,-7.6223]},{"header":{"parameterUnit":"m.s-1","parameterCategory":1,"la1":30.2991,"la2":30.254,"lo1":-89.0895,"lo2":-89.0444,"dy":0.0017,"dx":0.0017,"nx":28,"ny":28,"refTime":"2024-04-09T21:00:00:Z","depth":0,"parameterNumber":3,"parameterNumberName":"V-component_of_WINDS"},"data":[0,0,0,0,0,0,0,0,0,0,0,0,0,0,0,0,0,0,0,0,0,0,0,0,0,0,0,0,0,0,0,0,0,0,0,0,0,0,0,0,0,0,0,0,0,0,0,0,0,0,0,0,0,0,0,0,0,0,9.226,9.226,0,9.2306,9.2306,9.2307,9.2226,9.2223,9.222,9.2218,9.226,9.2264,9.2268,0,0,0,0,0,0,0,0,0,0,0,0,0,9.2098,9.2101,9.226,9.226,9.2261,9.2306,9.2306,9.2307,9.2226,9.2223,9.2219,9.2216,9.2259,9.2264,9.2268,0,0,0,0,0,0,0,0,0,0,0,0,0,9.2158,9.2102,9.226,9.2226,9.2223,9.2306,9.2306,9.2307,9.2227,9.2223,9.2219,9.2215,9.2258,9.2263,9.2269,9.2384,0,0,9.2285,9.2288,0,0,0,0,0,0,0,0,9.2155,9.2164,9.223,9.2228,9.2226,9.2256,9.2265,9.2333,9.2228,9.2225,9.2217,9.2213,9.2262,9.2267,9.2284,9.2386,9.2388,9.2286,9.2289,9.2292,9.2293,0,0,0,0,0,0,0,9.2151,9.2162,9.2278,9.2231,9.2229,9.2207,9.2211,9.2277,9.2266,9.2225,9.2219,9.2226,9.226,9.2279,9.2285,9.2389,9.2286,9.2291,9.2294,9.2296,9.2589,9.2593,0,0,0,0,0,0,9.2152,9.2159,9.2276,9.2279,9.218,9.2214,9.2218,9.225,9.2265,9.2263,9.223,9.2222,9.2272,9.2278,9.2286,9.2423,9.2292,9.2297,9.23,9.2584,9.259,9.2595,0,0,0,0,0,0,9.2148,9.2163,9.2274,9.2218,9.223,9.2221,9.2257,9.2253,9.2273,9.2268,9.2265,9.2252,9.2269,9.2278,9.2361,9.2424,9.2299,9.2304,9.2579,9.2586,9.2592,9.2699,0,0,0,0,0,0,9.2144,9.2162,9.2207,9.2219,9.2234,9.235,9.2261,9.2257,9.2283,9.2274,9.2288,9.2287,9.2266,9.2353,9.2366,9.2429,9.2309,9.2573,9.2582,9.259,9.2689,9.2708,9.2724,0,0,0,0,0,9.2139,9.2234,9.221,9.2224,9.229,9.2354,9.2362,9.2338,9.2288,9.2333,9.233,9.2286,9.2415,9.2362,9.2377,9.2442,9.2569,9.258,9.2589,9.2682,9.2704,9.2724,0,0,0,0,0,0,9.2227,9.2235,9.2208,9.231,9.2332,9.234,9.2395,9.2362,9.2398,9.2387,9.2354,9.2358,9.2448,9.2452,9.2394,9.2555,9.2483,9.2497,9.2549,9.257,9.2587,9.2584,9.2313,0,0,0,0,0,9.2259,9.2312,9.2315,9.2405,9.2418,9.2405,9.2432,9.2412,9.2432,9.2441,9.2444,9.2465,9.251,9.254,9.2581,9.2689,9.2692,9.2741,9.2759,9.2773,9.2785,9.2844,9.2866,9.2628,9.2627,9.2627,0,0,9.2324,9.2335,9.237,9.2423,9.2438,9.2493,9.2413,9.2474,9.2514,9.2449,9.2529,9.2532,9.2553,9.265,9.2692,9.2656,9.2851,9.2786,9.2797,9.2801,9.2856,9.2879,9.2899,9.2634,9.2633,9.2632,0,0,9.2472,9.2485,9.2563,9.2579,9.2603,9.2594,9.2613,9.2626,9.2627,9.2706,9.2659,9.2705,9.2783,9.2801,9.282,9.2975,9.2937,9.2989,9.308,9.3138,9.3156,9.3173,9.3229,9.325,9.3001,9.3002,9.3002,0,9.255,9.2632,9.2606,9.2671,9.2696,9.2641,9.2719,9.2736,9.2771,9.2789,9.2749,9.2847,9.2856,9.2957,9.2995,9.3012,9.3032,9.2988,9.3156,9.3172,9.3187,9.3241,9.3262,9.3008,9.3007,9.3006,9.3006,0,9.2728,9.2785,9.2844,9.2883,9.2913,9.2984,9.2968,9.3002,9.2979,9.2974,9.3056,9.3066,9.3109,9.3131,9.3108,9.3229,9.3206,9.3162,9.3089,9.3217,9.3267,9.3287,9.3017,9.3015,9.3013,9.3011,0,0,9.2933,9.2956,9.2978,9.2995,9.3018,9.3062,9.313,9.3173,9.3204,9.323,9.3287,9.3354,9.3314,9.3335,9.3314,9.3365,9.3489,9.3313,9.3313,9.3347,9.3623,9.3657,9.3682,9.3463,9.3467,9.347,9.3622,0,9.308,9.32,9.3179,9.3295,9.3348,9.3297,9.3357,9.3377,9.3374,9.3418,9.3414,9.3463,9.3405,9.3418,9.3466,9.3464,9.3544,9.3452,9.3515,9.3518,9.3513,9.3707,9.3744,9.3887,9.3641,9.3644,9.3646,0,9.3269,9.3305,9.3427,9.3443,9.3464,9.3518,9.3557,9.3599,9.3621,9.3615,9.3641,9.361,9.3677,9.3604,9.3696,9.3634,9.3658,9.3661,9.3666,9.3672,9.359,9.3719,9.3931,9.3953,9.3676,9.3674,9.3672,0,9.3408,9.3486,9.357,9.3586,9.3606,9.3645,9.3655,9.3672,9.37,9.3733,9.3751,9.3791,9.3813,9.3845,9.3826,9.3774,9.3921,9.3846,9.3919,9.392,9.3953,9.3951,9.4173,9.3967,9.3967,9.3966,9.3966,0,9.3577,9.3653,9.3633,9.3684,9.3769,9.3743,9.3827,9.383,9.3846,9.3897,9.3854,9.3903,9.3874,9.392,9.3905,9.3984,9.3994,9.3991,9.3987,9.3996,9.3996,9.4012,9.4002,9.3972,9.3971,9.397,9.3969,0,9.3747,9.3736,9.3824,9.3836,9.3841,9.3903,9.3912,9.396,9.3954,9.4019,9.4032,9.4023,9.4075,9.4059,9.4114,9.4104,9.4205,9.4187,9.4199,9.4194,9.4268,9.4262,9.4509,9.454,9.4313,9.4315,9.4317,0,9.3855,9.3914,9.3933,9.3964,9.3978,9.4029,9.4058,9.4034,9.4066,9.4095,9.4139,9.4187,9.4225,9.431,9.4307,9.435,9.4333,9.4416,9.4339,9.4347,9.4335,9.4333,9.4339,9.4432,9.4435,9.4437,9.4438,0,9.405,9.4042,9.4086,9.4129,9.4165,9.4197,9.4225,9.4253,9.423,9.4268,9.4321,9.4351,9.4408,9.4456,9.4495,9.4503,9.4468,9.4463,9.4482,9.4493,9.4498,9.4497,9.4242,9.4457,9.4456,9.4454,9.4453,9.4452,9.4193,9.4243,9.4265,9.4316,9.4334,9.4362,9.4408,9.4408,9.4453,9.4499,9.4481,9.4543,9.4563,9.4611,9.4625,9.4672,9.464,9.4667,9.4674,9.4682,9.4692,9.449,9.4679,9.4678,9.4677,9.4677,9.4677,0,9.4387,9.4399,9.4446,9.4487,9.4527,9.4491,9.452,9.4555,9.461,9.4632,9.4671,9.4732,9.4779,9.4781,9.4825,9.4862,9.4847,9.4875,9.4872,9.4875,9.4718,9.4697,9.4886,9.4886,9.4886,9.4886,9.4886,9.4886,9.4493,9.4576,9.4571,9.4662,9.4673,9.4734,9.4754,9.4779,9.4796,9.4868,9.4907,9.4908,9.4922,9.4967,9.5008,9.5008,9.5026,9.506,9.5054,9.4907,9.4886,9.4866,9.4847,9.5064,9.5065,9.5207,9.5208,9.5209]}]]